Hourly Weather Roundup
Issued by NWS Central Illinois

Home | Current Version | Previous Version | Text Only | Print | Product List | Glossary On
Versions: 1 2 3 4 5 6 7 8 9 10 11 12 13 14 15 16 17 18 19 20 21 22 23 24 25 26 27 28 29 30 31 32 33 34 35 36 37 38 39 40 41 42 43 44 45 46 47 48 49 50
000
NZUS43 KILX 171910
HWRILX

Area Weather Roundup
National Weather Service Lincoln IL
100 PM CST FRI NOV 17 2017

NOTE:  "FAIR" indicates few or no clouds below 12,000 feet, with
       no sigificant weather and/or obstructions to visibility.


CITY           SKY/WX    TMP DP  RH WIND       PRES   REMARKS
Bloomington    CLOUDY    37  34  89 S20G25    29.86F FOG     WCI  27
Champaign      CLOUDY    39  35  86 SE16      29.93F WCI  30
Danville       CLOUDY    42  32  69 S12       29.93F WCI  35
Decatur        CLOUDY    41  37  86 S17       29.89F WCI  32
Effingham      CLOUDY    41  39  95 SE12      29.97F FOG     WCI  34
Flora          CLOUDY    44  40  85 SE13      29.98F FOG
Galesburg      CLOUDY    41  38  89 SE12G18   29.78F WCI  34
Jacksonville   CLOUDY    46  38  76 S12G18    29.80F
Lacon          CLOUDY    40  37  87 S13       29.83F WCI  33
Lawrenceville  PTSUNNY   44  37  76 S14       30.03F
Litchfield     CLOUDY    44  38  80 SE17G25   29.85F
$$


CITY           SKY/WX    TMP DP  RH WIND       PRES   REMARKS
Lincoln        CLOUDY    42  38  87 S15G23    29.86F WCI  34
Macomb         CLOUDY    42  38  88 SE15      29.80F FOG     WCI  34
Mattoon        CLOUDY    39  36  89 SE13      29.93F FOG     WCI  31
Mt Carmel AP   CLOUDY    43  37  82 SE13      30.01F
Olney-Noble AP CLOUDY    41  39  93 SE14      30.00F FOG     WCI  34
Paris AP       CLOUDY    40  35  82 SE17      29.98F WCI  31
Peoria         CLOUDY    40  37  89 S12G22    29.84F WCI  33
Pontiac        CLOUDY    38  37  98 S16       29.89F WCI  29
Rantoul        CLOUDY    39  36  89 SE16      29.92F FOG     WCI  30
Robinson       CLOUDY    42  36  79 S13       30.02F WCI  35
Springfield    CLOUDY    45  39  79 S20G30    29.83F
Taylorville    CLOUDY    42  38  84 SE15      29.87F WCI  34
$$

...REGIONAL REPORTS...


CITY           SKY/WX    TMP DP  RH WIND       PRES   REMARKS
Chicago O`Hare CLOUDY    44  31  60 S18       29.88F
Kankakee       CLOUDY    41  31  67 S14G20    29.93F WCI  34
Moline         CLOUDY    41  36  82 SE12G23   29.74F HAZE    WCI  34
Mount Sterling CLOUDY    44  38  82 SE16      29.76F
Mount Vernon   CLOUDY    45  40  82 SE7       29.96F
Pittsfield     CLOUDY    48  42  79 SE14G20   29.77F
Quincy         CLOUDY    47  40  76 S16G23    29.74F
Rockford       LGT RAIN  37  33  85 S15       29.84F WCI  28
$$


CITY           SKY/WX    TMP DP  RH WIND       PRES   REMARKS
Burlington     CLOUDY    43  39  86 S13       29.73F FOG
Cedar Rapids   LGT RAIN  40  38  93 S12       29.68F FOG     WCI  33
Des Moines     DRIZZLE   47  45  93 SE14      29.59F FOG
Kirksville     CLOUDY    53  51  93 S13       29.67F FOG
Ottumwa        CLOUDY    47  40  76 SE15      29.65F
St Louis       PTSUNNY   51  41  68 S18       29.84F
$$


CITY           SKY/WX    TMP DP  RH WIND       PRES   REMARKS
Terre Haute    CLOUDY    44  33  65 S12       30.01F
Evansville     CLOUDY    44  39  82 SE8       30.05F HAZE
Indianapolis   CLOUDY    45  33  63 SE10      30.01F
Lafayette      CLOUDY    45  33  63 S13       29.97F
Madison        CLOUDY    38  30  73 S17G32    29.78F WCI  28
Milwaukee      CLOUDY    41  34  76 S14G21    29.87F WCI  33
$$






USA.gov is the U.S. government's official web portal to all federal, state and local government web resources and services.